Volver al catálogo

STARLINK-35878

ActivoComunicacionesVLEO
NORAD 67178·PAYLOAD·🇺🇸 United States

Lanzado Dec 17, 2025 desde Cape Canaveral Space Force Station

Loading…

Próximos Pases (próximas 24 horas)

TLE

ActualizadoSource: CelesTrak SupGP

Época: Sep 15, 2026, 03:10 UTC

1 67178C 25303R   26258.13243056  .00036655  00000+0  13272-2 0  2588
2 67178  43.0033 320.8097 0001761 271.2677 257.5158 15.27570421    18

Sigue STARLINK-35878 en tiempo real con AllMySat

Download on the App Store